Location: Hurecourt
(47.9030°N, 6.0653°E)
Time: 04:26:46
(UTC+00:00)

Cosmos 407 Rocket - Pass Details

Date: 14 July 2020
Orbit: 744 x 786 km, 74.0° (Epoch: 06 August)

Event Time Altitude Azimuth Distance (km) Brightness Sun altitude
Exits shadow 00:55:14 28° 164° (SSE) 1,438 4.5 -18.5°
Maximum altitude 00:57:42 49° 105° (ESE) 1,008 4.1 -18.4°
Drops below altitude 10° 01:02:52 10° 32° (NNE) 2,356 7.2 -18.1°
Sets 01:05:19 0° 27° (NNE) 3,288 8.5 -18.0°
